EW0401 Weather Reports


time (UTC)temp
C
wind
direction
speed
KPH
gust
KPH
rain 1hr
cm
rain 24hr
cm
rain mn
cm
humidity
%
barometer
mb
20260510163053 29 225 0.0 6.4 0.00 0.00 0.00 77 1014.9
20260510161554 29 162 0.0 6.4 0.00 0.00 0.00 78 1015.0
20260510160056 28 194 0.0 6.4 0.00 0.00 0.00 79 1015.2
20260510154557 28 77 1.6 8.0 0.00 0.00 0.00 80 1015.3
20260510153051 27 105 0.0 6.4 0.00 0.00 0.00 81 1015.4
20260510151559 27 96 1.6 8.0 0.00 0.00 0.00 82 1015.6
20260510150051 27 0 0.0 3.2 0.00 0.00 0.00 82 1015.5
20260510144605 27 0 0.0 8.0 0.00 0.00 0.00 82 1015.4
20260510143100 27 44 0.0 4.8 0.00 0.00 0.00 83 1015.3
20260510141555 27 0 0.0 4.8 0.00 0.00 0.00 84 1015.3
20260510140053 26 0 0.0 4.8 0.00 0.00 0.00 85 1015.3
20260510134551 26 0 0.0 9.7 0.00 0.00 0.00 86 1015.2
20260510133053 25 42 0.0 6.4 0.00 0.00 0.00 89 1015.1
20260510131552 24 0 0.0 3.2 0.00 0.00 0.00 89 1014.9
20260510130110 24 0 0.0 3.2 0.00 0.00 0.00 89 1014.5
20260510124551 24 0 0.0 3.2 0.00 0.00 0.00 89 1014.3
20260510123057 24 0 0.0 0.0 0.00 0.00 0.00 89 1014.0
20260510121555 23 0 0.0 0.0 0.00 0.00 0.00 89 1013.7
20260510114554 23 0 0.0 0.0 0.00 0.00 0.00 89 1012.9
20260510113057 23 0 0.0 0.0 0.00 0.00 0.00 89 1012.8
20260510111551 23 0 0.0 1.6 0.00 0.00 0.00 89 1012.4
20260510110051 23 0 0.0 1.6 0.00 0.00 0.00 89 1012.3
20260510104550 23 0 0.0 3.2 0.00 0.00 0.00 89 1012.1
20260510103053 23 0 0.0 3.2 0.00 0.00 0.00 89 1012.1
20260510101557 23 0 0.0 3.2 0.00 0.00 0.00 89 1011.8
20260510100055 23 0 0.0 4.8 0.00 0.00 0.00 89 1011.7
20260510094553 23 0 0.0 6.4 0.00 0.00 0.00 89 1011.6
20260510093051 23 0 0.0 3.2 0.00 0.00 0.00 89 1011.7
20260510091554 23 0 0.0 0.0 0.00 0.00 0.00 89 1011.7
20260510090056 23 0 0.0 0.0 0.00 0.00 0.00 89 1011.8
20260510084557 23 0 0.0 3.2 0.00 0.00 0.00 89 1011.7
20260510083059 23 0 0.0 3.2 0.00 0.00 0.00 89 1011.8
20260510081554 23 0 0.0 3.2 0.00 0.00 0.00 89 1011.7
20260510074601 23 0 0.0 0.0 0.00 0.00 0.00 89 1011.7
20260510073114 23 0 0.0 0.0 0.00 0.00 0.00 88 1011.7
20260510071555 23 0 0.0 0.0 0.00 0.00 0.00 88 1011.5
20260510064635 23 0 0.0 1.6 0.00 0.00 0.00 88 1011.6
20260510063053 23 0 0.0 3.2 0.00 0.00 0.00 88 1011.8
20260510061553 23 0 0.0 3.2 0.00 0.00 0.00 88 1011.7
20260510060057 23 0 0.0 3.2 0.00 0.00 0.00 87 1011.8
20260510054557 23 0 0.0 4.8 0.00 0.00 0.00 87 1011.9
20260510053055 23 0 0.0 9.7 0.00 0.00 0.00 87 1011.9
20260510051558 24 0 0.0 6.4 0.00 0.00 0.00 87 1012.1
20260510050052 24 0 0.0 3.2 0.00 0.00 0.00 87 1012.1
20260510044551 24 0 0.0 3.2 0.00 0.00 0.00 87 1012.4
20260510043057 24 0 0.0 8.0 0.00 0.00 0.00 87 1012.5
20260510041558 24 0 0.0 8.0 0.00 0.00 0.00 87 1012.7
20260510040101 24 0 1.6 8.0 0.00 0.00 0.00 87 1012.8
20260510034616 24 69 3.2 11.3 0.00 0.00 0.00 87 1012.9
20260510033106 24 0 0.0 6.4 0.00 0.00 0.00 87 1012.5
20260510031554 24 0 0.0 11.3 0.00 0.00 0.00 87 1012.5
20260510030108 24 76 1.6 9.7 0.00 0.00 0.00 87 1012.2
20260510024558 24 0 0.0 8.0 0.00 0.00 0.00 87 1012.6
20260510023100 24 78 0.0 6.4 0.00 0.00 0.00 86 1012.4
20260510021606 25 0 1.6 6.4 0.00 0.00 0.00 85 1012.1
20260510020100 25 0 3.2 14.5 0.00 0.00 0.00 85 1012.2
20260510014601 24 77 3.2 12.9 0.00 0.00 0.00 80 1011.3
20260510013135 25 80 4.8 14.5 0.00 0.00 0.00 81 1010.7
20260510011556 25 84 4.8 14.5 0.00 0.00 0.00 85 1010.6
20260510010054 26 0 0.0 8.0 0.00 0.00 0.00 84 1010.1
20260510004551 27 0 0.0 3.2 0.00 0.00 0.00 82 1010.0
20260510003104 28 265 0.0 6.4 0.00 0.00 0.00 76 1009.5
20260510001551 28 0 0.0 3.2 0.00 0.00 0.00 76 1008.8
20260510000116 29 0 0.0 3.2 0.00 0.00 0.00 76 1008.9
20260509234551 30 100 0.0 0.0 0.00 0.00 0.00 75 1008.8
20260509233052 30 0 0.0 3.2 0.00 0.00 0.00 74 1008.8
20260509231556 31 0 0.0 4.8 0.00 0.00 0.00 72 1009.0
20260509230058 31 0 0.0 4.8 0.00 0.00 0.00 70 1008.8
20260509224549 32 0 0.0 3.2 0.00 0.00 0.00 71 1008.6
20260509223103 31 0 0.0 4.8 0.00 0.00 0.00 73 1008.7
20260509221600 31 0 0.0 4.8 0.00 0.00 0.00 73 1008.5
20260509220052 32 0 0.0 3.2 0.00 0.00 0.00 72 1008.5
20260509214601 32 0 0.0 3.2 0.00 0.00 0.00 73 1008.3
20260509213051 31 0 0.0 4.8 0.00 0.00 0.00 74 1008.4
20260509211556 31 0 0.0 3.2 0.00 0.00 0.00 75 1008.3
20260509210056 32 0 0.0 3.2 0.00 0.00 0.00 73 1008.5
20260509204553 32 0 0.0 3.2 0.00 0.00 0.00 72 1008.7
20260509203056 33 0 0.0 3.2 0.00 0.00 0.00 72 1008.6
20260509201549 32 0 0.0 3.2 0.00 0.00 0.00 65 1008.7
20260509200106 31 0 0.0 4.8 0.00 0.00 0.00 67 1009.0
20260509194556 32 0 0.0 3.2 0.00 0.03 0.00 67 1009.2
20260509193051 31 0 0.0 3.2 0.00 0.03 0.00 71 1009.4
20260509191549 31 0 0.0 6.4 0.00 0.03 0.00 75 1009.3
20260509190058 31 250 0.0 6.4 0.00 0.03 0.00 74 1009.6
20260509184553 30 0 0.0 4.8 0.00 0.05 0.00 76 1009.9
20260509183104 29 0 0.0 4.8 0.00 0.05 0.00 78 1010.2
20260509181558 28 0 0.0 6.4 0.00 0.05 0.00 79 1010.3
20260509180051 28 0 0.0 4.8 0.00 0.05 0.00 79 1010.6
20260509174553 28 0 0.0 4.8 0.00 0.08 0.00 80 1010.9
20260509173057 28 0 0.0 1.6 0.00 0.08 0.00 80 1011.0
20260509171556 28 0 0.0 3.2 0.00 0.08 0.00 80 1011.1
20260509170053 28 0 0.0 3.2 0.00 0.08 0.00 80 1011.3
20260509164553 28 0 0.0 3.2 0.00 0.10 0.00 80 1011.1